GW6849 Weather Reports


time (UTC)temp
C
wind
direction
speed
KPH
gust
KPH
rain 1hr
cm
rain 24hr
cm
rain mn
cm
humidity
%
barometer
mb
20260507075902 10 194 0.0 0.0 0.00 0.00 0.00 92 1021.8
20260507075358 10 194 0.0 0.0 0.00 0.00 0.00 92 1021.7
20260507074855 9 194 0.0 0.0 0.00 0.00 0.00 92 1021.8
20260507074352 9 192 0.0 0.0 0.00 0.00 0.00 94 1021.9
20260507073849 9 192 0.0 0.0 0.00 0.00 0.00 94 1021.9
20260507073346 9 194 0.0 0.0 0.00 0.00 0.00 92 1022.0
20260507072843 9 194 0.0 0.0 0.00 0.00 0.00 93 1022.0
20260507072341 8 194 0.0 0.0 0.00 0.00 0.00 94 1021.9
20260507071838 8 194 0.0 0.0 0.00 0.00 0.00 94 1021.9
20260507071335 9 194 0.0 0.0 0.00 0.00 0.00 93 1021.8
20260507070831 9 194 0.0 0.0 0.00 0.00 0.00 93 1021.8
20260507070329 9 194 0.0 0.0 0.00 0.00 0.00 93 1021.8
20260507065825 9 194 0.0 0.0 0.00 0.00 0.00 94 1021.8
20260507065322 8 194 0.0 0.0 0.00 0.00 0.00 93 1021.8
20260507064819 8 194 0.0 0.0 0.00 0.00 0.00 93 1021.7
20260507064318 8 194 0.0 0.0 0.00 0.00 0.00 94 1021.9
20260507063815 8 192 0.0 0.0 0.00 0.00 0.00 95 1021.8
20260507063312 8 183 0.0 0.0 0.00 0.00 0.00 95 1021.9
20260507062809 8 194 0.0 0.0 0.00 0.00 0.00 95 1021.8
20260507062306 8 192 0.0 0.0 0.00 0.00 0.00 94 1021.9
20260507061804 8 194 0.0 0.0 0.00 0.00 0.00 93 1021.9
20260507061301 9 192 0.0 0.0 0.00 0.00 0.00 94 1021.9
20260507060800 9 192 0.0 0.0 0.00 0.00 0.00 93 1021.9
20260507060256 9 192 0.0 0.0 0.00 0.00 0.00 93 1021.7
20260507055752 9 192 0.0 0.0 0.00 0.00 0.00 92 1021.7
20260507055248 9 192 0.0 0.0 0.00 0.00 0.00 93 1021.8
20260507054744 9 194 0.0 0.0 0.00 0.00 0.00 92 1022.0
20260507054241 9 194 0.0 0.0 0.00 0.00 0.00 94 1021.7
20260507053738 9 192 0.0 0.0 0.00 0.00 0.00 92 1021.7
20260507053236 9 194 0.0 0.0 0.00 0.00 0.00 92 1021.8
20260507052735 9 194 0.0 0.0 0.00 0.00 0.00 93 1021.6
20260507052230 9 194 0.0 0.0 0.00 0.00 0.00 92 1021.8
20260507051729 10 197 0.0 0.0 0.00 0.00 0.00 93 1021.8
20260507051225 10 196 0.0 0.0 0.00 0.00 0.00 93 1021.7
20260507050722 10 196 0.0 0.0 0.00 0.00 0.00 93 1021.6
20260507050219 10 194 0.0 0.0 0.00 0.00 0.00 92 1021.7
20260507045716 10 192 0.0 0.0 0.00 0.00 0.00 92 1021.5
20260507045212 10 197 0.0 0.0 0.00 0.00 0.00 92 1021.5
20260507044709 10 197 0.0 0.0 0.00 0.00 0.00 92 1021.6
20260507044206 10 197 0.0 0.0 0.00 0.00 0.00 92 1021.4
20260507043702 10 197 0.0 0.0 0.00 0.00 0.00 92 1021.5
20260507043159 10 197 0.0 0.0 0.00 0.00 0.00 91 1021.5
20260507042655 10 197 0.0 0.0 0.00 0.00 0.00 90 1021.3
20260507042150 11 197 0.0 0.0 0.00 0.00 0.00 89 1021.2
20260507041648 11 195 0.0 0.0 0.00 0.00 0.00 86 1021.4
20260507041144 11 197 0.0 0.0 0.00 0.00 0.00 89 1021.3
20260507040641 11 196 0.0 0.0 0.00 0.00 0.00 90 1021.3
20260507040138 11 197 0.0 0.0 0.00 0.00 0.00 88 1021.1
20260507035633 12 197 0.0 0.0 0.00 0.00 0.00 86 1021.1
20260507035130 11 196 0.0 0.0 0.00 0.00 0.00 86 1021.0
20260507034627 12 196 0.0 0.0 0.00 0.00 0.00 88 1021.1
20260507034124 12 196 0.0 0.0 0.00 0.00 0.00 88 1020.7
20260507033623 12 194 0.0 0.0 0.00 0.00 0.00 87 1021.0
20260507033119 12 194 0.0 0.0 0.00 0.00 0.00 87 1021.0
20260507032617 12 197 0.0 0.0 0.00 0.00 0.00 87 1021.0
20260507032112 12 197 0.0 0.0 0.00 0.00 0.00 86 1020.8
20260507031609 13 197 0.0 0.0 0.00 0.00 0.00 85 1020.7
20260507031106 13 196 0.0 0.0 0.00 0.00 0.00 85 1020.6
20260507030603 13 197 0.0 0.0 0.00 0.00 0.00 83 1020.6
20260507030101 13 196 0.0 0.0 0.00 0.00 0.00 84 1020.6
20260507025558 13 197 0.0 0.0 0.00 0.00 0.00 82 1020.7
20260507025055 14 196 0.0 0.0 0.00 0.00 0.00 81 1020.6
20260507024553 15 197 0.0 0.0 0.00 0.00 0.00 79 1020.7
20260507024049 15 195 0.0 0.0 0.00 0.00 0.00 78 1020.5
20260507023545 15 196 0.0 0.0 0.00 0.00 0.00 78 1020.4
20260507023043 15 196 0.0 0.0 0.00 0.00 0.00 78 1020.4
20260507022539 15 196 0.0 0.0 0.00 0.00 0.00 77 1020.5
20260507022035 16 196 0.0 0.0 0.00 0.00 0.00 75 1020.6
20260507021531 16 196 0.0 0.0 0.00 0.00 0.00 73 1020.6
20260507021028 16 173 0.0 0.0 0.00 0.00 0.00 71 1020.4
20260507020525 16 158 0.0 0.0 0.00 0.00 0.00 70 1020.3
20260507020021 16 158 0.0 0.0 0.00 0.00 0.00 71 1020.4
20260507015520 16 232 0.0 1.6 0.00 0.00 0.00 70 1020.4
20260507015017 17 300 0.0 0.0 0.00 0.00 0.00 67 1020.4
20260507014513 17 299 0.0 1.6 0.00 0.00 0.00 68 1020.5
20260507014009 17 261 0.0 0.0 0.00 0.00 0.00 68 1020.4
20260507013506 17 291 0.0 0.0 0.00 0.00 0.00 68 1020.7
20260507013004 17 196 1.6 3.2 0.00 0.00 0.00 67 1020.6
20260507012500 18 240 4.8 4.8 0.00 0.00 0.00 65 1020.6
20260507011957 17 264 3.2 3.2 0.00 0.00 0.00 65 1020.5
20260507011454 18 277 3.2 4.8 0.00 0.00 0.00 63 1020.5
20260507010949 18 245 0.0 1.6 0.00 0.00 0.00 63 1020.6
20260507010444 19 236 4.8 4.8 0.00 0.00 0.00 62 1020.7
20260507005941 19 264 3.2 4.8 0.00 0.00 0.00 62 1020.6
20260507005439 19 253 3.2 4.8 0.00 0.00 0.00 60 1020.4
20260507004935 18 152 1.6 3.2 0.00 0.00 0.00 63 1020.4
20260507004432 18 267 1.6 3.2 0.00 0.00 0.00 63 1020.5
20260507003929 19 279 3.2 4.8 0.00 0.00 0.00 62 1020.4
20260507003424 20 326 3.2 4.8 0.00 0.00 0.00 62 1020.5
20260507002920 19 228 0.0 0.0 0.00 0.00 0.00 57 1020.4
20260507002416 19 297 3.2 4.8 0.00 0.00 0.00 60 1020.4
20260507001913 20 318 4.8 4.8 0.00 0.00 0.00 58 1020.2
20260507001410 20 356 3.2 3.2 0.00 0.00 0.00 59 1020.5
20260507000908 19 341 4.8 6.4 0.00 0.00 0.00 61 1020.4
20260507000405 20 336 4.8 6.4 0.00 0.00 0.00 58 1020.4
20260506235859 20 350 3.2 3.2 0.00 0.00 0.00 59 1020.4
20260506235356 20 337 1.6 1.6 0.00 0.00 0.00 60 1020.3
20260506234852 20 83 3.2 4.8 0.00 0.00 0.00 59 1020.3
20260506234349 20 356 4.8 6.4 0.00 0.00 0.00 59 1020.2
20260506233847 21 65 3.2 6.4 0.00 0.00 0.00 60 1020.2
20260506233343 20 2 0.0 1.6 0.00 0.00 0.00 58 1020.3
20260506232840 21 344 6.4 11.3 0.00 0.00 0.00 58 1020.2
20260506232336 20 347 4.8 6.4 0.00 0.00 0.00 60 1020.2
20260506231832 20 303 1.6 3.2 0.00 0.00 0.00 61 1020.2
20260506231330 20 322 6.4 9.7 0.00 0.00 0.00 61 1020.4
20260506230827 20 285 0.0 0.0 0.00 0.00 0.00 59 1020.3
20260506230324 19 294 0.0 0.0 0.00 0.00 0.00 61 1020.4
20260506225820 21 294 3.2 4.8 0.00 0.00 0.00 59 1020.4
20260506225318 20 4 4.8 6.4 0.00 0.00 0.00 63 1020.2
20260506224814 20 310 4.8 6.4 0.00 0.00 0.00 62 1020.3
20260506224312 20 321 1.6 1.6 0.00 0.00 0.00 61 1020.4
20260506223808 20 12 3.2 4.8 0.00 0.00 0.00 61 1020.5
20260506223303 20 357 1.6 3.2 0.00 0.00 0.00 62 1020.8
20260506222800 20 319 6.4 11.3 0.00 0.00 0.00 63 1020.6
20260506222256 20 340 6.4 6.4 0.00 0.00 0.00 62 1020.7
20260506221754 21 322 6.4 6.4 0.00 0.00 0.00 58 1020.7
20260506221252 20 249 3.2 4.8 0.00 0.00 0.00 60 1020.6
20260506220749 21 358 3.2 4.8 0.00 0.00 0.00 60 1020.5
20260506220243 22 18 0.0 0.0 0.00 0.00 0.00 56 1020.7
20260506215741 21 39 1.6 1.6 0.00 0.00 0.00 60 1020.7
20260506215236 21 325 4.8 9.7 0.00 0.00 0.00 59 1020.8
20260506214733 21 307 6.4 6.4 0.00 0.00 0.00 59 1020.6
20260506214230 20 335 6.4 9.7 0.00 0.00 0.00 61 1020.9
20260506213728 21 282 3.2 4.8 0.00 0.00 0.00 58 1020.6
20260506213225 21 331 3.2 3.2 0.00 0.00 0.00 55 1020.7
20260506212722 20 333 6.4 6.4 0.00 0.00 0.00 60 1020.6
20260506212218 20 47 0.0 1.6 0.00 0.00 0.00 58 1020.9
20260506211714 21 327 6.4 9.7 0.00 0.00 0.00 58 1021.0
20260506211210 20 168 3.2 3.2 0.00 0.00 0.00 62 1020.9
20260506210707 20 278 0.0 1.6 0.00 0.00 0.00 62 1020.8
20260506210204 20 306 1.6 3.2 0.00 0.00 0.00 62 1020.9
20260506205701 20 105 4.8 4.8 0.00 0.00 0.00 63 1020.9
20260506205156 20 328 3.2 4.8 0.00 0.00 0.00 65 1020.9
20260506204654 20 350 6.4 11.3 0.00 0.00 0.00 62 1020.9
20260506204150 20 351 0.0 0.0 0.00 0.00 0.00 62 1021.1
20260506203648 19 340 3.2 4.8 0.00 0.00 0.00 64 1021.0
20260506203145 19 301 3.2 6.4 0.00 0.00 0.00 66 1021.1
20260506202643 18 305 0.0 1.6 0.00 0.00 0.00 66 1021.0
20260506202139 18 55 4.8 4.8 0.00 0.00 0.00 67 1021.4
20260506201636 20 18 3.2 4.8 0.00 0.00 0.00 62 1021.1
20260506201133 20 303 1.6 3.2 0.00 0.00 0.00 58 1021.1
20260506200629 18 306 4.8 4.8 0.00 0.00 0.00 63 1021.1
20260506200126 19 274 0.0 0.0 0.00 0.00 0.00 62 1021.1
20260506195623 19 321 8.0 11.3 0.00 0.00 0.00 62 1021.3
20260506195119 18 250 0.0 1.6 0.00 0.00 0.00 63 1021.1
20260506194617 20 285 0.0 0.0 0.00 0.00 0.00 61 1021.4
20260506194113 18 275 1.6 1.6 0.00 0.00 0.00 60 1021.2
20260506193611 20 59 0.0 0.0 0.00 0.00 0.00 63 1021.1
20260506193108 18 284 1.6 3.2 0.00 0.00 0.00 61 1021.2
20260506192604 18 264 3.2 3.2 0.00 0.00 0.00 62 1021.2
20260506192100 18 304 4.8 6.4 0.00 0.00 0.00 61 1021.0
20260506191557 18 252 3.2 4.8 0.00 0.00 0.00 64 1021.0
20260506191053 17 219 4.8 6.4 0.00 0.00 0.00 65 1021.0
20260506190550 17 122 0.0 1.6 0.00 0.00 0.00 69 1021.3
20260506190047 17 224 6.4 9.7 0.00 0.00 0.00 66 1021.2
20260506185545 17 244 3.2 3.2 0.00 0.00 0.00 66 1021.1
20260506185041 18 321 6.4 9.7 0.00 0.00 0.00 64 1021.2
20260506184539 17 274 4.8 4.8 0.00 0.00 0.00 66 1021.2
20260506184036 18 251 6.4 9.7 0.00 0.00 0.00 64 1021.3
20260506183531 17 314 3.2 4.8 0.00 0.00 0.00 69 1021.3
20260506183028 18 292 1.6 3.2 0.00 0.00 0.00 63 1021.4
20260506182526 18 292 3.2 4.8 0.00 0.00 0.00 68 1021.3
20260506182023 17 309 9.7 12.9 0.00 0.00 0.00 67 1021.3
20260506181521 17 294 1.6 1.6 0.00 0.00 0.00 68 1021.3
20260506181017 18 313 1.6 1.6 0.00 0.00 0.00 64 1021.2
20260506180514 17 243 3.2 4.8 0.00 0.00 0.00 65 1021.3
20260506180010 18 207 0.0 0.0 0.00 0.00 0.00 67 1021.4
20260506175507 16 263 1.6 1.6 0.00 0.00 0.00 69 1021.3
20260506175003 16 300 4.8 6.4 0.00 0.00 0.00 71 1021.2
20260506174502 17 263 4.8 4.8 0.00 0.00 0.00 69 1021.1
20260506173958 17 258 6.4 9.7 0.00 0.00 0.00 66 1021.0
20260506173456 16 105 3.2 3.2 0.00 0.00 0.00 75 1020.9
20260506172952 16 325 1.6 3.2 0.00 0.00 0.00 74 1021.1
20260506172450 17 299 6.4 9.7 0.00 0.00 0.00 70 1021.1
20260506171946 15 241 0.0 0.0 0.00 0.00 0.00 73 1021.2
20260506171443 15 142 3.2 4.8 0.00 0.00 0.00 75 1021.2
20260506170941 15 244 0.0 0.0 0.00 0.00 0.00 75 1021.4
20260506170437 15 319 4.8 6.4 0.00 0.00 0.00 75 1021.4
20260506165936 15 253 1.6 1.6 0.00 0.00 0.00 78 1021.2
20260506165434 16 301 3.2 4.8 0.00 0.00 0.00 73 1021.2
20260506164930 15 259 3.2 3.2 0.00 0.00 0.00 76 1021.1
20260506164427 15 305 1.6 3.2 0.00 0.00 0.00 78 1021.2
20260506163925 14 343 0.0 0.0 0.00 0.00 0.00 80 1021.4
20260506163425 14 34 0.0 0.0 0.00 0.00 0.00 82 1021.4
20260506162920 13 18 0.0 0.0 0.00 0.00 0.00 82 1021.4
20260506162419 13 247 0.0 0.0 0.00 0.00 0.00 81 1021.5
20260506161916 14 291 3.2 4.8 0.00 0.00 0.00 78 1021.4
20260506161414 15 307 0.0 0.0 0.00 0.00 0.00 78 1021.5
20260506160911 13 265 0.0 0.0 0.00 0.00 0.00 82 1021.4
20260506160408 12 242 1.6 3.2 0.00 0.00 0.00 86 1021.1
20260506155906 11 164 0.0 0.0 0.00 0.00 0.00 89 1021.2
20260506155402 11 145 4.8 4.8 0.00 0.00 0.00 89 1021.1
20260506153519 12 312 1.6 3.2 0.00 0.00 0.00 90 1020.9
20260506153017 12 299 0.0 0.0 0.00 0.00 0.00 90 1021.3
20260506152513 11 299 0.0 0.0 0.00 0.00 0.00 91 1021.3
20260506152012 11 299 0.0 0.0 0.00 0.00 0.00 92 1021.2
20260506151509 11 299 0.0 0.0 0.00 0.00 0.00 92 1021.3
20260506151006 11 299 0.0 0.0 0.00 0.00 0.00 92 1021.4
20260506150502 11 299 0.0 0.0 0.00 0.00 0.00 93 1021.4
20260506145959 11 299 1.6 3.2 0.00 0.00 0.00 94 1021.3
20260506145455 11 302 3.2 3.2 0.00 0.00 0.00 94 1021.3
20260506144953 11 301 0.0 0.0 0.00 0.00 0.00 94 1021.4
20260506144450 11 302 0.0 0.0 0.00 0.00 0.00 94 1021.4
20260506143948 11 162 0.0 0.0 0.00 0.00 0.00 94 1021.5
20260506143444 11 162 0.0 0.0 0.00 0.00 0.00 95 1021.2
20260506142943 11 192 1.6 1.6 0.00 0.00 0.00 94 1021.2
20260506142440 11 183 0.0 0.0 0.00 0.00 0.00 95 1020.9
20260506141939 11 184 0.0 0.0 0.00 0.00 0.00 95 1020.9
20260506141436 11 183 0.0 0.0 0.00 0.00 0.00 95 1020.8
20260506140935 11 143 0.0 0.0 0.00 0.00 0.00 96 1020.7
20260506140431 10 127 0.0 0.0 0.00 0.00 0.00 96 1020.2
20260506135928 10 149 1.6 3.2 0.00 0.00 0.00 96 1020.4
20260506135425 10 158 0.0 0.0 0.00 0.00 0.00 97 1020.3
20260506134921 10 158 0.0 0.0 0.00 0.00 0.00 97 1020.2
20260506134417 10 143 0.0 0.0 0.00 0.00 0.00 97 1020.2
20260506133915 10 119 0.0 0.0 0.00 0.00 0.00 97 1020.3
20260506133411 10 119 0.0 0.0 0.00 0.00 0.00 97 1020.2
20260506132908 10 119 0.0 0.0 0.00 0.00 0.00 97 1020.2
20260506132405 10 119 0.0 0.0 0.00 0.00 0.00 97 1020.3
20260506131903 10 119 0.0 0.0 0.00 0.00 0.00 96 1020.3
20260506131359 10 114 0.0 0.0 0.00 0.00 0.00 96 1020.3
20260506130856 10 114 0.0 0.0 0.00 0.00 0.00 96 1020.1
20260506130352 10 354 0.0 0.0 0.00 0.00 0.00 96 1020.1
20260506125850 10 354 0.0 0.0 0.00 0.00 0.00 96 1020.0
20260506125349 10 354 0.0 0.0 0.00 0.00 0.00 96 1020.1
20260506124847 10 354 0.0 0.0 0.00 0.00 0.00 96 1020.0
20260506124343 10 353 0.0 0.0 0.00 0.00 0.00 96 1020.0
20260506123841 10 353 0.0 0.0 0.00 0.00 0.00 96 1019.9
20260506123339 10 353 0.0 0.0 0.00 0.00 0.00 96 1020.0
20260506122836 10 353 0.0 0.0 0.00 0.00 0.00 96 1020.0
20260506122333 10 353 0.0 0.0 0.00 0.00 0.00 96 1019.9
20260506121831 10 353 0.0 0.0 0.00 0.00 0.00 96 1020.2
20260506121328 10 353 0.0 0.0 0.00 0.00 0.00 96 1019.9
20260506120825 10 353 0.0 0.0 0.00 0.00 0.00 96 1020.0
20260506120323 10 353 0.0 0.0 0.00 0.00 0.00 96 1020.0
20260506115820 10 353 0.0 0.0 0.00 0.00 0.00 95 1019.8
20260506115318 10 353 0.0 0.0 0.00 0.00 0.00 96 1019.6
20260506114816 10 353 0.0 0.0 0.00 0.00 0.00 96 1019.9
20260506114313 10 353 0.0 0.0 0.00 0.00 0.00 96 1019.7
20260506113812 10 353 0.0 0.0 0.00 0.00 0.00 96 1019.8
20260506113309 10 353 0.0 0.0 0.00 0.00 0.00 96 1019.6
20260506112805 10 353 0.0 0.0 0.00 0.00 0.00 96 1019.5
20260506112305 10 353 0.0 0.0 0.00 0.00 0.00 96 1019.4
20260506111800 10 353 0.0 0.0 0.00 0.00 0.00 96 1019.5
20260506111258 10 353 0.0 0.0 0.00 0.00 0.00 95 1019.3
20260506110755 10 353 0.0 0.0 0.00 0.00 0.00 95 1019.4
20260506110252 10 353 0.0 0.0 0.00 0.00 0.00 96 1019.3
20260506105749 10 353 0.0 0.0 0.00 0.00 0.00 95 1019.2
20260506105246 10 353 0.0 0.0 0.00 0.00 0.00 96 1019.1
20260506104743 10 353 0.0 0.0 0.00 0.00 0.00 96 1019.1
20260506104241 10 353 0.0 0.0 0.00 0.00 0.00 96 1019.0
20260506103738 10 353 0.0 0.0 0.00 0.00 0.00 96 1018.8
20260506103235 10 353 0.0 0.0 0.00 0.00 0.00 96 1018.7
20260506102733 10 353 0.0 0.0 0.00 0.00 0.00 97 1018.8
20260506102231 10 353 0.0 0.0 0.00 0.00 0.00 97 1018.6
20260506101727 10 353 0.0 0.0 0.00 0.00 0.00 96 1018.8
20260506101224 10 353 0.0 0.0 0.00 0.00 0.00 96 1018.7
20260506100722 10 353 0.0 0.0 0.00 0.00 0.00 96 1018.6
20260506100220 10 353 0.0 0.0 0.00 0.00 0.00 97 1018.6
20260506095718 10 353 0.0 0.0 0.00 0.00 0.00 97 1018.7
20260506095214 10 353 0.0 0.0 0.00 0.00 0.00 97 1018.4
20260506094711 10 353 0.0 0.0 0.00 0.00 0.00 97 1018.3
20260506094209 9 353 0.0 0.0 0.00 0.00 0.00 97 1018.5
20260506093708 9 353 0.0 0.0 0.00 0.00 0.00 97 1018.5
20260506093204 9 353 0.0 0.0 0.00 0.00 0.00 97 1018.4
20260506092702 9 353 0.0 0.0 0.00 0.00 0.00 97 1018.4
20260506092200 9 353 0.0 0.0 0.00 0.00 0.00 96 1018.3
20260506091658 10 353 0.0 0.0 0.00 0.00 0.00 96 1018.2
20260506091155 10 353 0.0 0.0 0.00 0.00 0.00 96 1018.3
20260506090652 10 353 0.0 0.0 0.00 0.00 0.00 96 1018.3
20260506090149 10 353 0.0 0.0 0.00 0.00 0.00 96 1018.3
20260506085646 10 353 0.0 0.0 0.00 0.00 0.00 95 1018.2
20260506085142 10 353 0.0 0.0 0.00 0.00 0.00 95 1018.3
20260506084638 10 353 0.0 0.0 0.00 0.00 0.00 95 1018.2
20260506084136 10 353 0.0 0.0 0.00 0.00 0.00 96 1018.2
20260506083632 10 353 0.0 0.0 0.00 0.00 0.00 96 1018.2
20260506083130 10 353 0.0 0.0 0.00 0.00 0.00 96 1018.3
20260506082626 10 353 0.0 0.0 0.00 0.00 0.00 96 1018.2
20260506082122 10 353 0.0 0.0 0.00 0.00 0.00 96 1018.1
20260506081621 10 353 0.0 0.0 0.00 0.00 0.00 96 1018.2
20260506081118 10 353 0.0 0.0 0.00 0.00 0.00 96 1018.1
20260506080615 10 354 0.0 0.0 0.00 0.00 0.00 95 1018.1